TimeCDT,TemperatureF,Dew PointF,Humidity,Sea Level PressureIn,VisibilityMPH,Wind Direction,Wind SpeedMPH,Gust SpeedMPH,PrecipitationIn,Events,Conditions,WindDirDegrees,DateUTC
12:53 AM,72.0,59.0,64,29.83,10.0,SSE,20.7,27.6,N/A,,Clear,160,2013-09-27 05:53:00
1:53 AM,71.1,60.1,68,29.83,10.0,SSE,17.3,25.3,N/A,,Clear,160,2013-09-27 06:53:00
2:53 AM,70.0,60.1,71,29.83,10.0,SSE,17.3,-,N/A,,Clear,160,2013-09-27 07:53:00
3:53 AM,69.1,60.1,73,29.81,10.0,SSE,20.7,25.3,N/A,,Clear,150,2013-09-27 08:53:00
4:53 AM,69.1,60.1,73,29.80,10.0,SSE,19.6,24.2,N/A,,Clear,150,2013-09-27 09:53:00
5:53 AM,69.1,60.1,73,29.80,10.0,SSE,23.0,31.1,N/A,,Partly Cloudy,160,2013-09-27 10:53:00
6:24 AM,69.8,60.8,73,29.83,10.0,South,17.3,26.5,0.00,Rain-Thunderstorm,Light Thunderstorms and Rain,170,2013-09-27 11:24:00
6:53 AM,68.0,61.0,78,29.83,10.0,SSE,17.3,25.3,0.00,Rain-Thunderstorm,Light Rain,160,2013-09-27 11:53:00
7:14 AM,66.2,60.8,83,29.86,8.0,SSE,12.7,23.0,0.01,Rain,Light Rain,150,2013-09-27 12:14:00
7:26 AM,66.2,62.6,88,29.86,5.0,SSE,12.7,-,0.03,Rain-Thunderstorm,Light Rain,150,2013-09-27 12:26:00
7:43 AM,66.2,60.8,83,29.84,5.0,ESE,12.7,-,0.06,Rain,Light Rain,120,2013-09-27 12:43:00
7:53 AM,66.9,61.0,81,29.85,7.0,SW,10.4,27.6,0.07,Rain,Light Rain,220,2013-09-27 12:53:00
8:53 AM,66.9,62.1,84,29.82,10.0,SSE,21.9,29.9,0.00,,Mostly Cloudy,160,2013-09-27 13:53:00
9:53 AM,68.0,62.1,81,29.82,10.0,SSE,25.3,32.2,0.00,,Mostly Cloudy,160,2013-09-27 14:53:00
10:53 AM,70.0,62.1,76,29.82,10.0,South,17.3,-,N/A,,Partly Cloudy,170,2013-09-27 15:53:00
11:53 AM,77.0,62.1,60,29.81,10.0,South,25.3,38.0,N/A,,Clear,170,2013-09-27 16:53:00
12:53 PM,84.0,59.0,43,29.79,10.0,SSE,32.2,38.0,N/A,,Clear,160,2013-09-27 17:53:00
1:53 PM,87.1,55.9,35,29.77,7.0,South,32.2,41.4,N/A,,Clear,180,2013-09-27 18:53:00
2:53 PM,87.1,55.9,35,29.75,10.0,SSE,27.6,38.0,N/A,,Clear,160,2013-09-27 19:53:00
3:37 PM,87.8,53.6,31,29.78,2.5,South,34.5,44.9,N/A,,Haze,170,2013-09-27 20:37:00
3:48 PM,87.8,55.4,33,29.78,9.0,South,25.3,41.4,N/A,,Clear,170,2013-09-27 20:48:00
3:53 PM,86.0,55.0,35,29.75,10.0,South,34.5,41.4,N/A,,Clear,170,2013-09-27 20:53:00
4:53 PM,86.0,57.0,37,29.76,10.0,South,25.3,38.0,N/A,,Clear,170,2013-09-27 21:53:00
5:53 PM,84.9,57.0,38,29.76,10.0,South,26.5,34.5,N/A,,Clear,180,2013-09-27 22:53:00
6:53 PM,81.0,57.9,45,29.77,10.0,South,13.8,-,N/A,,Clear,170,2013-09-27 23:53:00
7:53 PM,77.0,57.9,52,29.78,10.0,SSE,10.4,-,N/A,,Partly Cloudy,160,2013-09-28 00:53:00
8:53 PM,75.9,59.0,56,29.79,10.0,SSE,15.0,-,N/A,,Clear,150,2013-09-28 01:53:00
9:53 PM,75.0,59.0,57,29.79,10.0,SSE,18.4,-,N/A,,Clear,150,2013-09-28 02:53:00
10:53 PM,73.9,59.0,59,29.77,10.0,SSE,15.0,23.0,N/A,,Clear,150,2013-09-28 03:53:00
11:53 PM,72.0,59.0,64,29.75,10.0,SSE,18.4,26.5,N/A,,Clear,160,2013-09-28 04:53:00